INTELSAT 33E DEB, 64409

Orbit data source: Space-Track

INTELSAT 33E DEB, 64409 is space debris in GEO originally from a launch on Wed, 24 Aug 2016 UTC launched from the French Guiana (FRGUI). Debris objects in space refer to the collection of defunct objects orbiting the Earth. Examples of debris include non-operational satellites, rocket bodies, and fragments generated from explosions, collisions, or faulty payload assembly.

Loading next visibility...
Identifier
64409, 2016-053AP
Orbit
GEO
Country
Flag of UnknownUnknown / ITSO
Related business
Manufacturer
Boeing/ES
Mission
Spacecraft
Bus & Motor
Unknown
Mass
Unknown
Launch date (UTC)
2016-08-24 (9 years ago)
Launch vehicle
Unknown
Launch site
French Guiana (FRGUI)
Object type
Payload
Rocket body
Debris
Shape & HBR
Unknown shape, 1.1 m
Radar Cross Section
RCS unknown

Expand to show TLE details & history
Last TLE update: 1 day ago

TLE from 1 day ago
0 INTELSAT 33E DEB
1 64409U 16053AP  25340.15751607 -.00000233  00000-0  00000-0 0  9993
2 64409   1.0256  79.3070 0053839  77.2206 281.9319  0.99469302  3948
Epoch: 2025-12-06T03:46Z
TLE epoch observation values (Epoch: 2025-12-06T03:46:49.388Z)
Latitude
Longitude
-54.04907°
Altitude
35,966.536 km
Speed
3.07 km/s
True Right ascension
05h 11m 23s
True Declination
0° 00' 00"
Sunlit
Object was in daylight at epoch
Visualization orbit readout
Latitude
Unknown
Longitude
Unknown
Altitude
Unknown
Speed
Unknown
Apparent Right ascension
Unknown
Apparent Declination
Unknown
Sunlit
N/A
Visualization observer readout
Local Sidereal Time
03:27:39
Azimuth
Unknown
Elevation
Unknown
Doppler factor
Unknown
Orbital elements
Apogee altitude
36,242.371 km
Perigee altitude
35,785.9 km
Semi-major axis
42,392.273 km
Eccentricity
0.00538
Inclination
1.0256°
RAAN
79.307°
Arg. of periapsis
77.2206°
True anomaly
281.32745°
Mean anomaly
281.9319°
Eccentric anomaly
281.62976°
Mean motion
0.24866 °/min
Orbital period
1,447.74 mins
BSTAR
0
Loading maneuver chart data...
Computing Atmospheric mass density...
Loading historical data...
Loading historical data...
Loading historical data...
Loading historical data...
Loading historical data...
Loading historical data...
Loading historical data...

Documentation

Showing up to 5 results
|